This is the latest recevied weather packets stored in our database for station/object N7NMS-13. If no packets are shown the sender has not sent any weather packets the latest 10 day(s).
| Time | Temp. | Humidity | Pressure | Rain* | Wind** | Luminosity | Snow |
|---|---|---|---|---|---|---|---|
| 1777590348 | 10.56° C | 68% | - | 0 mm | - | - | - |
| 1777589748 | 10.56° C | 66% | - | 0 mm | - | - | - |
| 1777589148 | 10.56° C | 66% | - | 0 mm | - | - | - |
| 1777588518 | 10° C | 71% | - | 0 mm | - | - | - |
| 1777587918 | 10.56° C | 68% | - | 0 mm | - | - | - |
| 1777587288 | 10.56° C | 67% | - | 0 mm | - | - | - |
| 1777586688 | 10.56° C | 70% | - | 0 mm | - | - | - |
| 1777586088 | 9.44° C | 70% | - | 0 mm | - | - | - |
| 1777585458 | 10° C | 70% | - | 0 mm | - | - | - |
| 1777584828 | 10° C | 70% | - | 0 mm | - | - | - |
| 1777584228 | 10° C | 69% | - | 0 mm | - | - | - |
| 1777583628 | 11.11° C | 68% | - | 0 mm | - | - | - |
| 1777583028 | 10° C | 71% | - | 0 mm | - | - | - |
| 1777582398 | 10° C | 74% | - | 0 mm | - | - | - |
| 1777581798 | 10.56° C | 71% | - | 0 mm | - | - | - |
| 1777581198 | 11.11° C | 70% | - | 0 mm | - | - | - |
| 1777580598 | 11.11° C | 69% | - | 0 mm | - | - | - |
| 1777579968 | 10.56° C | 75% | - | 0 mm | - | - | - |
| 1777579338 | 10° C | 75% | - | 0 mm | - | - | - |
| 1777578738 | 10° C | 74% | - | 0 mm | - | - | - |
| 1777578138 | 10° C | 74% | - | 0 mm | - | - | - |
| 1777577508 | 11.11° C | 81% | - | 0 mm | - | - | - |
| 1777576908 | 10.56° C | 82% | - | 0 mm | - | - | - |
| 1777576308 | 10° C | 88% | - | 0 mm | - | - | - |
| 1777575708 | 9.44° C | 87% | - | 0 mm | - | - | - |
* Rain latest hour (hover to see other rain measurements)
** Current wind speed in m/s (hover to see current wind gust speed)